Location: Colossi of Memnon
(25.7167°N, 32.6167°E)
Time: 04:46:59
(UTC+00:00)

deb Chang Zheng 4 - Pass Details

Date: 05 March 2021
Orbit: 601 x 620 km, 98.6° (Epoch: 17 April)

Event Time Altitude Azimuth Distance (km) Brightness Sun altitude
Rises 03:41:56 0° 358° (N) 2,875 6.9 -6.9°
Reaches altitude 10° 03:44:18 10° 348° (NNW) 1,972 6.0 -6.4°
Maximum altitude 03:48:03 30° 287° (WNW) 1,097 4.3 -5.5°
Drops below altitude 10° 03:51:49 10° 225° (SW) 1,974 5.8 -4.7°
Sets 03:54:11 0° 215° (SW) 2,879 6.7 -4.1°
